User: anonymous   Login
Location: Natural Bridges National Monument
(37.6093°N, 109.9767°W)
Time: 10:38:47
(UTC-06:00)
Language:

Cosmos 1727 Rocket - Orbit

View from above orbital plane
View from above orbital plane
View from above satellite
View from above satellite

Ground track
Ground track

The orbit data is extracted from the following two-line orbital elements,

1 16511U 86008B   18140.92713312 -.00000022 +00000-0 -39035-4 0  9998
2 16511 082.9420 329.4496 0025352 060.9022 108.3225 13.75822427622455
Epoch (UTC): 20 May 2018 22:15:04
Eccentricity: 0.0025352
inclination: 82.9420°
perigee height: 960 km
apogee height: 997 km
right ascension of ascending node: 329.4496°
argument of perigee: 60.9022°
revolutions per day: 13.75822427
mean anomaly at epoch: 108.3225°
orbit number at epoch: 62245

The dashed part of the orbit path shows where the satellite is in the earth's shadow,  

DLR